Regional Weather Roundup
Issued by NWS

Home | Current Version | Previous Version | Text Only | Print | Product List | Glossary Off
Versions: 1 2 3 4 5 6 7 8 9 10 11 12 13 14 15 16 17 18 19 20 21 22 23 24 25 26 27

000
ASUS45 KCYS 021010
RWRWY

WYOMING REGIONAL WEATHER ROUNDUP
NATIONAL WEATHER SERVICE CHEYENNE WY
300 AM MST FRI DEC 02 2016

NOTE:  "FAIR" INDICATES FEW OR NO CLOUDS BELOW 12,000 FEET
WITH NO SIGNIFICANT WEATHER AND/OR OBSTRUCTIONS TO VISIBILITY.

WYZ001-021100-
YELLOWSTONE NATIONAL PARK

CITY           SKY/WX    TMP DP  RH WIND       PRES   REMARKS
LK YELLOWSTONE   N/A      7   5  91 CALM      30.09R
W YELLOWSTONE  NOT AVBL

$$
WYZ002>013-054>058-071-098>099-021100-
NORTHERN WYOMING

CITY           SKY/WX    TMP DP  RH WIND       PRES   REMARKS
JACKSON        CLOUDY    12  12 100 CALM      30.12S
CODY           FAIR      20  14  77 SW3       30.12R
GREYBULL       CLOUDY    25  19  78 SE3       30.13R
WORLAND        MOCLDY    21  19  92 S6        30.12R WCI  13
SHERIDAN       CLOUDY    29  22  75 NW8       30.12R WCI  21
BUFFALO        MOCLDY    30  18  60 NW8       30.09R WCI  22
GILLETTE       FAIR      25  22  88 W7        30.08R WCI  17
HULETT         FAIR      21  19  93 SW8       30.08S WCI  12
NEWCASTLE      MIX PCPN  27  25  93 N5        30.10S WCI  21

$$
WYZ014>020-022>026-101>103-021100-
CENTRAL WYOMING

CITY           SKY/WX    TMP DP  RH WIND       PRES   REMARKS
BIG PINEY      FAIR       7   3  84 SE6       30.08R WCI  -3
PINEDALE       FAIR       1  -2  85 N13       30.08S WCI -16
DUBOIS         FAIR      10   3  72 NW6       30.06R WCI   1
LANDER         CLOUDY    20  12  71 CALM      30.10R
RIVERTON       CLOUDY    19  14  81 NW3       30.11R
CASPER         LGT SNOW  22  20  92 N5        30.09R FOG     WCI  16
DOUGLAS        CLOUDY    24  21  88 N7        30.10R WCI  16

$$
WYZ021-027>030-104>119-021100-
SOUTHERN WYOMING

CITY           SKY/WX    TMP DP  RH WIND       PRES   REMARKS
EVANSTON       CLOUDY    17  13  84 CALM      30.07R
FORT BRIDGER   PTSUNNY   15  15  98 W8        30.10S WCI   4
ROCK SPRINGS   MOCLDY    12  10  92 W5        30.08R WCI   4
DIXON          CLOUDY    18  15  89 CALM      30.11S
RAWLINS        FAIR      10   6  84 SW3       30.06R
SARATOGA       FAIR      10  10 100 SE5       30.06S WCI   2
LARAMIE        CLOUDY    13  10  88 NE3       30.01S
CHEYENNE       FLURRIES  23  16  74 N5        30.06R WCI  17
TORRINGTON     FAIR      23  18  81 CALM      30.10R
PINE BLUFFS    PTSUNNY   18  12  79 W3        30.09S

$$




USA.gov is the U.S. government's official web portal to all federal, state and local government web resources and services.